This is the latest recevied weather packets stored in our database for station/object N7AWM. If no packets are shown the sender has not sent any weather packets the latest 10 day(s).
| Time | Temp. | Humidity | Pressure | Rain* | Wind** | Luminosity | Snow |
|---|---|---|---|---|---|---|---|
| 1777979640 | 20° C | 39% | 1004.5 hPa | 0 mm | - | - | - |
| 1777978800 | 20° C | 38% | 1004.3 hPa | 0 mm | - | - | - |
| 1777977960 | 20.56° C | 38% | 1004.1 hPa | 0 mm | - | - | - |
| 1777977120 | 20.56° C | 38% | 1004.1 hPa | 0 mm | - | - | - |
| 1777976280 | 20.56° C | 38% | 1004 hPa | 0 mm | - | - | - |
| 1777975440 | 21.11° C | 38% | 1003.9 hPa | 0 mm | - | - | - |
| 1777974600 | 21.11° C | 38% | 1003.8 hPa | 0 mm | - | - | - |
| 1777973760 | 21.67° C | 37% | 1003.7 hPa | 0 mm | - | - | - |
| 1777972920 | 21.67° C | 37% | 1003.7 hPa | 0 mm | - | - | - |
| 1777972080 | 21.67° C | 37% | 1003.7 hPa | 0 mm | - | - | - |
| 1777971240 | 21.11° C | 37% | 1003.7 hPa | 0 mm | - | - | - |
| 1777970400 | 21.11° C | 37% | 1003.6 hPa | 0 mm | - | - | - |
| 1777969560 | 21.11° C | 38% | 1003.7 hPa | 0 mm | - | - | - |
| 1777968720 | 21.67° C | 38% | 1003.7 hPa | 0 mm | - | - | - |
| 1777967881 | 21.11° C | 38% | 1003.6 hPa | 0 mm | - | - | - |
| 1777967041 | 20.56° C | 39% | 1003.6 hPa | 0 mm | - | - | - |
| 1777966201 | 21.11° C | 38% | 1003.4 hPa | 0 mm | - | - | - |
| 1777965361 | 21.11° C | 38% | 1003.4 hPa | 0 mm | - | - | - |
| 1777964521 | 21.67° C | 37% | 1003.3 hPa | 0 mm | - | - | - |
| 1777963681 | 21.11° C | 38% | 1003.2 hPa | 0 mm | - | - | - |
| 1777962841 | 21.67° C | 37% | 1003.1 hPa | 0 mm | - | - | - |
| 1777962001 | 21.67° C | 36% | 1003.2 hPa | 0 mm | - | - | - |
| 1777961161 | 21.67° C | 35% | 1003.1 hPa | 0 mm | - | - | - |
| 1777960321 | 21.67° C | 35% | 1003.2 hPa | 0 mm | - | - | - |
| 1777959481 | 22.22° C | 34% | 1003.2 hPa | 0 mm | - | - | - |
* Rain latest hour (hover to see other rain measurements)
** Current wind speed in m/s (hover to see current wind gust speed)